VOZ117 YSSY-YMEN

Flight info

Callsign VOZ117
Flight time N/A
Altitude 32000
Route WOL H65 LEECE Q29 LUVAS Q205 COLDS V512 ESDAN
Aircraft B733/M-SDE2E3FHIRW/S

Departure

Time 2026-04-22 18:04
Airport Sydney Kingsford Smith International Airport (YSSY)

Arrival

Time N/A
Airport Melbourne Essendon Airport (YMEN)
Time Latitude Longitude Altitude Speed Heading
2026-04-22 17:41 -33.93667 151.18119 30 ft 0 kts 50°
2026-04-22 17:52 -33.93679 151.18101 28 ft 4 kts 67°
2026-04-22 17:52 -33.93682 151.18072 30 ft 4 kts 114°
2026-04-22 17:52 -33.93667 151.18052 30 ft 3 kts 165°
2026-04-22 17:53 -33.93664 151.18052 30 ft 1 kts 166°
2026-04-22 17:55 -33.93665 151.18052 30 ft 1 kts 166°
2026-04-22 17:55 -33.93670 151.18053 28 ft 0 kts 166°
2026-04-22 17:56 -33.93700 151.18062 30 ft 13 kts 166°
2026-04-22 17:56 -33.93794 151.17986 29 ft 27 kts 259°
2026-04-22 17:56 -33.93850 151.17780 20 ft 11 kts 214°
2026-04-22 17:57 -33.93940 151.17791 23 ft 20 kts 167°
2026-04-22 17:57 -33.94156 151.17847 26 ft 39 kts 168°
2026-04-22 17:57 -33.94397 151.17906 25 ft 23 kts 169°
2026-04-22 17:57 -33.94554 151.17890 22 ft 25 kts 169°
2026-04-22 17:58 -33.94651 151.17917 22 ft 16 kts 169°
2026-04-22 17:58 -33.94816 151.17960 20 ft 33 kts 168°
2026-04-22 17:58 -33.95054 151.18023 25 ft 19 kts 167°
2026-04-22 17:58 -33.95144 151.17970 26 ft 15 kts 206°
2026-04-22 17:59 -33.95177 151.17956 24 ft 16 kts 202°
2026-04-22 18:00 -33.95222 151.17845 25 ft 14 kts 255°
2026-04-22 18:00 -33.95252 151.17695 22 ft 23 kts 258°
2026-04-22 18:00 -33.95324 151.17581 18 ft 22 kts 186°
2026-04-22 18:01 -33.95560 151.17636 20 ft 43 kts 167°
2026-04-22 18:01 -33.95813 151.17702 25 ft 19 kts 166°
2026-04-22 18:01 -33.95892 151.17779 21 ft 0 kts 111°
2026-04-22 18:02 -33.95892 151.17781 21 ft 2 kts 110°
2026-04-22 18:03 -33.95862 151.17903 22 ft 25 kts 17°
2026-04-22 18:03 -33.95744 151.17887 20 ft 31 kts 347°
2026-04-22 18:03 -33.95175 151.17739 20 ft 134 kts 348°
2026-04-22 18:03 -33.93967 151.17429 17 ft 211 kts 348°
2026-04-22 18:04 -33.92493 151.17055 1035 ft 212 kts 348°
2026-04-22 18:04 -33.91111 151.16707 2644 ft 194 kts 348°
2026-04-22 18:04 -33.89726 151.16335 3711 ft 220 kts 341°
2026-04-22 18:04 -33.88476 151.15195 4570 ft 235 kts 300°
2026-04-22 18:05 -33.88102 151.13294 5415 ft 245 kts 262°
2026-04-22 18:05 -33.88788 151.11413 6242 ft 254 kts 224°
2026-04-22 18:05 -33.90312 151.10341 7048 ft 261 kts 188°
2026-04-22 18:05 -33.92163 151.10286 7861 ft 276 kts 174°
2026-04-22 18:06 -33.94161 151.10447 8671 ft 299 kts 173°
2026-04-22 18:06 -33.96314 151.10597 9524 ft 320 kts 175°
2026-04-22 18:06 -33.98603 151.10691 10371 ft 339 kts 176°
2026-04-22 18:06 -34.01022 151.10672 11168 ft 356 kts 180°
2026-04-22 18:07 -34.03535 151.10335 11965 ft 372 kts 187°
2026-04-22 18:07 -34.06105 151.09596 12781 ft 386 kts 194°
2026-04-22 18:07 -34.08671 151.08517 13622 ft 397 kts 199°
2026-04-22 18:07 -34.11235 151.07189 14435 ft 405 kts 202°
2026-04-22 18:08 -34.13798 151.05699 15199 ft 410 kts 204°
2026-04-22 18:08 -34.16326 151.04140 15969 ft 409 kts 205°
2026-04-22 18:08 -34.18843 151.02549 16763 ft 407 kts 205°
2026-04-22 18:08 -34.21338 151.00959 17584 ft 405 kts 205°
2026-04-22 18:09 -34.23836 150.99367 18420 ft 404 kts 205°
2026-04-22 18:09 -34.26319 150.97790 19200 ft 402 kts 205°
2026-04-22 18:09 -34.28793 150.96223 19956 ft 401 kts 205°
2026-04-22 18:09 -34.31260 150.94662 20736 ft 399 kts 205°
2026-04-22 18:10 -34.33683 150.93129 21522 ft 396 kts 205°
2026-04-22 18:10 -34.36113 150.91592 22337 ft 394 kts 205°
2026-04-22 18:10 -34.38540 150.90056 23184 ft 391 kts 205°
2026-04-22 18:10 -34.40933 150.88540 24028 ft 388 kts 205°
2026-04-22 18:11 -34.43317 150.87029 24766 ft 384 kts 205°
2026-04-22 18:11 -34.45673 150.85534 25535 ft 380 kts 205°
2026-04-22 18:11 -34.48000 150.84058 26310 ft 375 kts 205°
2026-04-22 18:11 -34.50293 150.82602 27098 ft 370 kts 205°
2026-04-22 18:12 -34.52557 150.81163 27920 ft 364 kts 205°
2026-04-22 18:12 -34.54786 150.79715 28621 ft 363 kts 210°
2026-04-22 18:12 -34.56147 150.78450 29058 ft 366 kts 222°
2026-04-22 18:12 -34.58259 150.75263 30005 ft 365 kts 230°
2026-04-22 18:13 -34.59746 150.72771 30667 ft 363 kts 231°
2026-04-22 18:13 -34.61205 150.70291 31261 ft 359 kts 231°
2026-04-22 18:13 -34.62649 150.67837 31872 ft 355 kts 231°
2026-04-22 18:13 -34.64083 150.65414 32456 ft 353 kts 231°
2026-04-22 18:14 -34.65525 150.62993 32892 ft 354 kts 231°
2026-04-22 18:14 -34.66999 150.60530 32895 ft 368 kts 231°
2026-04-22 18:14 -34.68531 150.57977 32924 ft 380 kts 231°
2026-04-22 18:14 -34.70108 150.55348 32928 ft 391 kts 231°
2026-04-22 18:15 -34.71182 150.53559 32932 ft 399 kts 231°
2026-04-22 18:15 -34.73408 150.49844 32934 ft 414 kts 231°
2026-04-22 18:15 -34.75125 150.46976 32934 ft 424 kts 231°
2026-04-22 18:16 -34.78666 150.41051 32928 ft 442 kts 232°
2026-04-22 18:16 -34.82337 150.34898 32931 ft 455 kts 232°
2026-04-22 18:17 -34.86071 150.28626 32927 ft 457 kts 232°
2026-04-22 18:17 -34.89763 150.22416 32925 ft 455 kts 232°
2026-04-22 18:18 -34.93473 150.16166 32921 ft 455 kts 232°
2026-04-22 18:18 -34.97188 150.09898 32926 ft 456 kts 232°
2026-04-22 18:19 -35.00901 150.03621 32936 ft 456 kts 232°
2026-04-22 18:19 -35.04611 149.97341 32942 ft 456 kts 232°
2026-04-22 18:20 -35.08325 149.91050 32944 ft 457 kts 232°
2026-04-22 18:20 -35.12033 149.84765 32952 ft 456 kts 233°
2026-04-22 18:21 -35.15727 149.78492 32957 ft 457 kts 233°
2026-04-22 18:21 -35.19438 149.72176 32959 ft 457 kts 233°